M I D A S
Marine Information and Data Acquisition System
Tripno 1573 of the Zeeleeuw from 2008-09-24 08:31:13 to 2008-09-24 13:55:11
Back to CruiseResearch ActivitiesStationsMapUnderway DataData graphs

EquipmentUnitsComment
TimeDGPSUTC
LatitudeDGPSDM.mWGS84
LongitudeDGPSDM.mWGS84
HeadingGyrodeg 
SOGDGPSknotsSpeed over ground
COGDGPSdegCourse over ground
DepthEcho soundermeters200 kHz
Missing or incorrect values are displayed as -999
Navigation data collected by the RV Zeeleeuw from 2008-09-24 08:31:13 to 2008-09-24 13:55:11
Time Latitude Longitude Heading SOG COG Depth
2008-09-24 08:33:20 51°13.624 2°56.047 123.7   118 -999
2008-09-24 08:35:20 51°13.632 2°56.012 110 1.8 293 -999
2008-09-24 08:37:20 51°13.685 2°55.829 118.2 4.2 298 -999
2008-09-24 08:39:20 51°13.79 2°55.669 147.5 4.4 327 -999
2008-09-24 08:41:20 51°13.924 2°55.625 188.5 4 3 -999
2008-09-24 08:43:20 51°13.973 2°55.592 289.5 2.79 301 -999
2008-09-24 08:45:20 51°14.131 2°55.417 326.8 6.5 327 -999
2008-09-24 08:47:20 51°14.311 2°55.137 309.8 8.3 310 -999
2008-09-24 08:49:20 51°14.482 2°54.705 295.1 9.9 297 -999
2008-09-24 08:51:20 51°14.654 2°54.208 294.5 10.69 297 -999
2008-09-24 08:53:20 51°14.818 2°53.735 295.6 10 299 -999
2008-09-24 08:55:20 51°14.962 2°53.216 286.6 10.59 288 -999
2008-09-24 08:57:20 51°14.958 2°52.646 266.3 10.8 268 -999
2008-09-24 08:59:20 51°14.954 2°52.077 269 10.9 272 -999
2008-09-24 09:01:20 51°14.981 2°51.501 276.1 10.9 279 -999
2008-09-24 09:03:20 51°15.087 2°50.939 286.8 11.09 289 -999
2008-09-24 09:05:20 51°15.192 2°50.379 283.6 11 286 -999
2008-09-24 09:07:20 51°15.296 2°49.814 283.8 11.19 289 -999
2008-09-24 09:09:20 51°15.396 2°49.261 284.6 10.9 284 -999
2008-09-24 09:11:20 51°15.498 2°48.701 284.1 10.9 287 -999
2008-09-24 09:13:20 51°15.595 2°48.144 283.5 11 287 -999
2008-09-24 09:15:20 51°15.697 2°47.585 285.8 10.9 286 -999
2008-09-24 09:17:20 51°15.811 2°47.036 288.8 10.9 290 -999
2008-09-24 09:19:20 51°15.945 2°46.501 290.6 10.69 295 -999
2008-09-24 09:21:20 51°16.097 2°45.979 293.5 10.9 292 -999
2008-09-24 09:23:20 51°16.284 2°45.479 299.3 11.3 302 -999
2008-09-24 09:25:20 51°16.491 2°45.003 303.3 11 306 -999
2008-09-24 09:27:20 51°16.7 2°44.518 302.6 11 305 -999
2008-09-24 09:29:20 51°16.91 2°44.024 301.6 11.3 303 -999
2008-09-24 09:31:20 51°17.121 2°43.528 302.6 11.4 305 -999
2008-09-24 09:33:20 51°17.325 2°43.038 301.6 11.09 305 -999
2008-09-24 09:35:20 51°17.532 2°42.556 302.6 11 305 -999
2008-09-24 09:37:20 51°17.746 2°42.067 302.6 11.3 304 -999
2008-09-24 09:39:20 51°17.96 2°41.581 301.8 11.4 306 -999
2008-09-24 09:41:20 51°18.169 2°41.09 300.3 11.3 305 -999
2008-09-24 09:43:20 51°18.376 2°40.61 302.3 10.9 305 -999
2008-09-24 09:45:20 51°18.585 2°40.138 302.3 11 307 -999
2008-09-24 09:47:20 51°18.797 2°39.663 303.5 11.09 304 -999
2008-09-24 09:49:20 51°19.012 2°39.195 304.1 10.59 307 -999
2008-09-24 09:51:20 51°19.19 2°38.792 301.8 8.09 304 -999
2008-09-24 09:53:20 51°19.343 2°38.445 304.1 8 306 -999
2008-09-24 09:55:20 51°19.495 2°38.104 301.1 8 305 -999
2008-09-24 09:57:20 51°19.644 2°37.767 303.5 7.79 309 -999
2008-09-24 09:59:20 51°19.806 2°37.439 305.1 7.7 310 -999
2008-09-24 10:01:20 51°19.951 2°37.151 303.3 5.79 308 -999
2008-09-24 10:03:20 51°20.035 2°37.043 313.1 2.79 326 -999
2008-09-24 10:05:20 51°20.091 2°36.968 304.6 2.29 306 -999
2008-09-24 10:07:20 51°20.1 2°36.864 268.3 1.3 293 -999
2008-09-24 10:09:20 51°20.122 2°36.819 289.3 1 335 -999
2008-09-24 10:11:20 51°20.142 2°36.809 311.8 0.59 352 -999
2008-09-24 10:13:20 51°20.209 2°36.826 12.8 3.79 19 -999
2008-09-24 10:15:20 51°20.157 2°37.014 135.5 5.09 136 -999
2008-09-24 10:17:20 51°20.05 2°37.034 230 4 239 -999
2008-09-24 10:19:20 51°20.045 2°36.962 279 0.69 311 -999
2008-09-24 10:21:20 51°20.067 2°36.94 311.8 0.59 319 -999
2008-09-24 10:23:20 51°20.102 2°36.888 301.6 1.1 314 -999
2008-09-24 10:25:20 51°20.135 2°36.861 331.1 0.9 340 -999
2008-09-24 10:27:20 51°20.148 2°36.849 336.6 0.4 294 -999
2008-09-24 10:29:20 51°20.153 2°36.843 323.3 0.29 26 -999
2008-09-24 10:31:20 51°20.154 2°36.84 312.1 0.1 52 -999
2008-09-24 10:33:20 51°20.156 2°36.84 306.8 0.29 237 -999
2008-09-24 10:35:20 51°20.162 2°36.837 311.1 0.2 305 -999
2008-09-24 10:37:20 51°20.166 2°36.826 324.5 0.2 337 -999
2008-09-24 10:39:20 51°20.17 2°36.815 326.6 0.2 310 -999
2008-09-24 10:41:20 51°20.193 2°36.796 336.6 1.8 338 -999
2008-09-24 10:43:20 51°20.248 2°36.884 85 2.7 85 -999
2008-09-24 10:45:20 51°20.19 2°36.893 190.9 1.3 194 -999
2008-09-24 10:47:20 51°20.172 2°36.892 163 0.29 201 -999
2008-09-24 10:49:20 51°20.169 2°36.888 151.3   309 -999
2008-09-24 10:51:20 51°20.168 2°36.877 148.1 0.1 341 -999
2008-09-24 10:53:20 51°20.166 2°36.861 152.6 0.29 250 -999
2008-09-24 10:55:20 51°20.166 2°36.846 154.8 0.2 265 -999
2008-09-24 10:57:20 51°20.167 2°36.826 155.1 0.29 284 -999
2008-09-24 10:59:20 51°20.168 2°36.807 156 0.4 239 -999
2008-09-24 11:01:20 51°20.167 2°36.791 152.3 0.2 231 -999
2008-09-24 11:03:20 51°20.168 2°36.77 157.3 0.29 266 -999
2008-09-24 11:05:20 51°20.167 2°36.752 154.5 0.59 244 -999
2008-09-24 11:07:20 51°20.167 2°36.732 156.3 0.29 246 -999
2008-09-24 11:09:20 51°20.167 2°36.716 155.1 0.59 264 -999
2008-09-24 11:11:20 51°20.167 2°36.693 157.5 0.5 287 -999
2008-09-24 11:13:20 51°20.17 2°36.667 166.5 0.4 282 -999
2008-09-24 11:15:20 51°20.173 2°36.642 161.6 0.5 279 -999
2008-09-24 11:17:20 51°20.172 2°36.619 161.9 0.29 252 -999
2008-09-24 11:19:20 51°20.162 2°36.612 147.1 0.69 170 -999
2008-09-24 11:21:20 51°20.146 2°36.656 111 0.8 138 -999
2008-09-24 11:23:20 51°20.134 2°36.684 113.2 0.8 151 -999
2008-09-24 11:25:20 51°20.123 2°36.704 111.7 0.4 122 -999
2008-09-24 11:27:20 51°20.112 2°36.725 111.7 0.69 153 -999
2008-09-24 11:29:20 51°20.102 2°36.746 111.9 0.69 159 -999
2008-09-24 11:31:20 51°20.092 2°36.76 108 0.4 97 -999
2008-09-24 11:33:20 51°20.084 2°36.745 125.7 0.29 257 -999
2008-09-24 11:35:20 51°20.081 2°36.712 155.8 0.69 262 -999
2008-09-24 11:37:20 51°20.076 2°36.68 165.5 0.59 257 -999
2008-09-24 11:39:20 51°20.07 2°36.647 158.8 0.8 260 -999
2008-09-24 11:41:20 51°20.068 2°36.614 159 0.5 258 -999
2008-09-24 11:43:20 51°20.057 2°36.588 149.3 0.69 233 -999
2008-09-24 11:45:20 51°20.043 2°36.569 145.9 0.59 174 -999
2008-09-24 11:47:20 51°20.014 2°36.571 142.9 0.59 187 -999
2008-09-24 11:49:20 51°19.999 2°36.557 139.4 0.29 222 -999
2008-09-24 11:51:20 51°19.981 2°36.601 101.7 2.29 97 -999
2008-09-24 11:53:20 51°20.021 2°36.643 45.2 1.1 8 -999
2008-09-24 11:55:20 51°20.043 2°36.659 70.7 0.59 49 -999
2008-09-24 11:57:20 51°20.049 2°36.677 71.5 0.29 65 -999
2008-09-24 11:59:20 51°20.056 2°36.69 71.2 0.5 22 -999
2008-09-24 13:01:20 51°17.034 2°43.45 118.5 8.69 130 -999
2008-09-24 13:03:20 51°16.86 2°43.83 120.9 9.09 127 -999
2008-09-24 13:05:20 51°16.728 2°44.248 108.4 9 115 -999
2008-09-24 13:07:20 51°16.622 2°44.685 105.7 8.69 110 -999
2008-09-24 13:09:20 51°16.518 2°45.118 106.2 8.9 110 -999
2008-09-24 13:11:20 51°16.411 2°45.55 106.2 8.69 112 -999
2008-09-24 13:13:20 51°16.306 2°45.982 105.7 9 114 -999
2008-09-24 13:15:20 51°16.2 2°46.412 107.2 8.69 108 -999
2008-09-24 13:17:20 51°16.093 2°46.836 107.2 8.69 111 -999
2008-09-24 13:19:20 51°15.993 2°47.263 104.4 8.8 109 -999
2008-09-24 13:21:20 51°15.9 2°47.695 103.7 8.59 110 -999
2008-09-24 13:23:20 51°15.806 2°48.126 103.5 8.69 109 -999
2008-09-24 13:25:20 51°15.711 2°48.557 104.5 8.59 112 -999
2008-09-24 13:27:20 51°15.615 2°48.988 104.2 8.59 113 -999
2008-09-24 13:29:20 51°15.517 2°49.422 104.2 8.8 113 -999
2008-09-24 13:31:20 51°15.442 2°49.862 98.5 8.5 108 -999
2008-09-24 13:33:20 51°15.363 2°50.305 100 8.8 104 -999
2008-09-24 13:35:20 51°15.285 2°50.75 102.7 8.8 107 -999
2008-09-24 13:37:20 51°15.199 2°51.19 101.5 8.8 106 -999
2008-09-24 13:39:20 51°15.109 2°51.629 103.4 8.8 106 -999
2008-09-24 13:41:20 51°15.021 2°52.068 102.7 8.69 113 -999
2008-09-24 13:43:20 51°14.932 2°52.505 101.4 8.5 108 -999
2008-09-24 13:45:20 51°14.845 2°52.944 102.2 8.59 107 -999
2008-09-24 13:47:20 51°14.761 2°53.384 103.7 8.69 107 -999
2008-09-24 13:49:20 51°14.671 2°53.823 102.2 8.8 112 -999
2008-09-24 13:51:20 51°14.555 2°54.251 108 9 115 -999
2008-09-24 13:53:20 51°14.447 2°54.683 108.2 8.59 109 -999